Location: Pcim
(49.7500°N, 19.9670°E)
Time: 06:31:27
(UTC+02:00)

Oscar 19 - Visible Passes

Search period start: 16 April 2024 00:00
Search period end: 26 April 2024 00:00
Orbit: 771 x 788 km, 98.9° (Epoch: 15 April)

Date Brightness Start Highest point End Pass type
(mag) Time Alt. Az. Time Alt. Az. Time Alt. Az.
16 Apr 12.7 05:01:20 10° NE 05:05:52 30° E 05:10:22 10° SSE visible
17 Apr 13.4 04:29:51 10° NE 04:33:05 16° E 04:36:16 10° SE visible
20 Apr 13.4 04:31:45 10° NE 04:35:04 17° E 04:38:22 10° SE visible
23 Apr 13.4 04:33:38 10° NE 04:37:03 17° E 04:40:26 10° SE visible
